Battle Mountain, Nevada, United States (89820)
Lat: 40.64N, Lon: 116.93W
Wx Zone: NVZ036
Local Info
Past Weather Observations for Thursday, July 17, 2014

NOTE: This archive is for the closest National Weather Service station to Battle Mountain. Information may differ from the station used for current weather conditions.

Click here for Long-term Archive

Time Weather Temperature Dewpoint Humidity Pressure Winds Precip Visibility
23:56
Clear
72°F / 22°C 37°F / 3°C 29% 30.01 in
(1016 mb)
S 11.5 mph
(S 19 kph)
- 9SM
22:56
Clear
70°F / 21°C 36°F / 2°C 29% 30.01 in
(1016 mb)
SSE 9.2 mph
(SSE 15 kph)
- 10SM
21:56
Clear
72°F / 22°C 37°F / 3°C 29% 30.01 in
(1016 mb)
Calm - 10SM
20:56
Clear
75°F / 24°C 37°F / 3°C 25% 30.01 in
(1016 mb)
Calm - 10SM
19:56
Clear
75°F / 24°C 36°F / 2°C 24% 29.98 in
(1015 mb)
SW 6.9 mph
(SW 11 kph)
- 10SM
18:56
Clear
86°F / 30°C 36°F / 2°C 17% 29.98 in
(1015 mb)
WNW 6.9 mph
(WNW 11 kph)
- 10SM
17:56
Clear
91°F / 33°C 34°F / 1°C 13% 29.98 in
(1015 mb)
NW 6.9 mph
(NW 11 kph)
- 9SM
16:56
Clear
93°F / 34°C 32°F / 0°C 11% 29.98 in
(1015 mb)
SSW 11.5 mph
(SSW 19 kph)
- 8SM
15:56
Clear
93°F / 34°C 32°F / 0°C 11% 29.98 in
(1015 mb)
Variable 5.8 mph
(Variable 9 kph)
- 9SM
14:56
Clear
93°F / 34°C 30°F / -1°C 11% 30.01 in
(1016 mb)
NW 10.4 mph
(NW 17 kph)
- 8SM
13:56
Clear
93°F / 34°C 32°F / 0°C 11% 30.04 in
(1017 mb)
NNW 8.1 mph
(NNW 13 kph)
- 7SM
12:56
Clear
91°F / 33°C 32°F / 0°C 12% 30.04 in
(1017 mb)
W 6.9 mph
(W 11 kph)
- 7SM
11:56
Clear
93°F / 34°C 30°F / -1°C 11% 30.06 in
(1018 mb)
NNW 17.3 mph
(NNW 28 kph)
- 8SM
11:34
Clear
91°F / 33°C 30°F / -1°C 11% 30.06 in
(1018 mb)
N 11.5 mph
(N 19 kph)
- 8SM
10:56
Partly Cloudy
Hazy
88°F / 31°C 30°F / -1°C 13% 30.06 in
(1018 mb)
NW 8.1 mph
(NW 13 kph)
- 6SM
09:56
Clear
88°F / 31°C 32°F / 0°C 13% 30.06 in
(1018 mb)
Variable 6.9 mph
(Variable 11 kph)
- 10SM
08:56
Clear
81°F / 27°C 34°F / 1°C 18% 30.06 in
(1018 mb)
NE 10.4 mph
(NE 17 kph)
- 10SM
07:56
Clear
79°F / 26°C 30°F / -1°C 17% 30.06 in
(1018 mb)
NE 5.8 mph
(NE 9 kph)
- 10SM
06:56
Clear
73°F / 23°C 28°F / -2°C 19% 30.06 in
(1018 mb)
Calm - 10SM
05:56
Clear
63°F / 17°C 30°F / -1°C 30% 30.06 in
(1018 mb)
SE 4.6 mph
(SE 7 kph)
- 10SM
04:56
Clear
55°F / 13°C 28°F / -2°C 36% 30.06 in
(1018 mb)
SE 6.9 mph
(SE 11 kph)
- 10SM
03:56
Clear
55°F / 13°C 30°F / -1°C 38% 30.04 in
(1017 mb)
SE 4.6 mph
(SE 7 kph)
- 10SM
02:56
Clear
55°F / 13°C 28°F / -2°C 36% 30.04 in
(1017 mb)
Calm - 10SM
01:56
Clear
61°F / 16°C 28°F / -2°C 29% 30.04 in
(1017 mb)
ESE 4.6 mph
(ESE 7 kph)
- 10SM
00:56
Clear
61°F / 16°C 30°F / -1°C 31% 30.04 in
(1017 mb)
Calm - 10SM
Time Weather Temperature Dewpoint Humidity Pressure Winds Precip Visibility


Weather for websites

WeatherForYou.com, LLC is not responsible for any damages or problems caused by this service. Current weather conditions are obtained from the closest station including government and personal stations which may have varying degrees of accuracy. Weather forecasts are derived from the NOAA NDFD. Like all things, this site belongs to Jesus Christ... He just trusts me to maintain it. If you have any questions or comments email webmaster@weatherforyou.com

Copyright © 2014, WeatherForYou.com LLC. All rights reserved.